Time,TemperatureF,DewpointF,PressureIn,WindDirection,WindDirectionDegrees,WindSpeedMPH,WindSpeedGustMPH,Humidity,HourlyPrecipIn,Conditions,Clouds,dailyrainin,SoftwareType,DateUTC
2013-12-12 00:03:00,2.4,-7.3,29.77,WNW,297,0.0,0.0,63,0.00,,---,0.00,VWS V12.08,2013-12-12 06:03:00,
2013-12-12 00:08:00,2.4,-7.3,29.77,SW,224,0.0,0.0,63,0.00,,---,0.00,VWS V12.08,2013-12-12 06:08:00,
2013-12-12 00:14:00,2.4,-7.3,29.77,NW,325,0.0,0.0,63,0.00,,---,0.00,VWS V12.08,2013-12-12 06:14:00,
2013-12-12 00:20:00,2.4,-7.3,29.77,West,275,0.0,0.0,63,0.00,,---,0.00,VWS V12.08,2013-12-12 06:20:00,
2013-12-12 00:25:00,2.5,-7.2,29.76,NNW,338,0.0,0.0,63,0.00,,---,0.00,VWS V12.08,2013-12-12 06:25:00,
2013-12-12 00:30:00,2.4,-7.3,29.76,WSW,247,0.0,0.0,63,0.00,,---,0.00,VWS V12.08,2013-12-12 06:30:00,
2013-12-12 00:35:00,2.5,-7.2,29.76,SW,229,0.0,0.0,63,0.00,,---,0.00,VWS V12.08,2013-12-12 06:35:00,
2013-12-12 00:40:00,2.5,-7.2,29.75,WSW,237,0.0,0.0,63,0.00,,---,0.00,VWS V12.08,2013-12-12 06:40:00,
2013-12-12 00:45:00,2.6,-7.1,29.75,SW,226,0.0,0.0,63,0.00,,---,0.00,VWS V12.08,2013-12-12 06:45:00,
2013-12-12 00:50:00,2.6,-6.8,29.74,WSW,240,0.0,0.0,64,0.00,,---,0.00,VWS V12.08,2013-12-12 06:50:00,
2013-12-12 00:56:00,2.6,-6.8,29.75,WSW,256,0.0,0.0,64,0.00,,---,0.00,VWS V12.08,2013-12-12 06:56:00,
2013-12-12 01:01:00,2.5,-6.9,29.74,NNW,333,0.0,0.0,64,0.00,,---,0.00,VWS V12.08,2013-12-12 07:01:00,
2013-12-12 01:06:00,2.5,-6.9,29.74,West,269,0.0,0.0,64,0.00,,---,0.00,VWS V12.08,2013-12-12 07:06:00,
2013-12-12 01:11:00,2.6,-6.8,29.74,North,359,0.0,0.0,64,0.00,,---,0.00,VWS V12.08,2013-12-12 07:11:00,
2013-12-12 01:16:00,2.7,-6.7,29.74,West,281,0.0,0.0,64,0.00,,---,0.00,VWS V12.08,2013-12-12 07:16:00,
2013-12-12 01:21:00,2.7,-6.7,29.74,North,0,0.0,0.0,64,0.00,,---,0.00,VWS V12.08,2013-12-12 07:21:00,
2013-12-12 01:26:00,2.8,-6.3,29.73,SW,229,0.0,0.0,65,0.00,,---,0.00,VWS V12.08,2013-12-12 07:26:00,
2013-12-12 01:31:00,2.9,-6.2,29.73,South,179,0.0,0.0,65,0.00,,---,0.00,VWS V12.08,2013-12-12 07:31:00,
2013-12-12 01:36:00,2.9,-6.2,29.73,NNW,336,0.0,0.0,65,0.00,,---,0.00,VWS V12.08,2013-12-12 07:36:00,
2013-12-12 01:41:00,2.8,-6.3,29.73,NW,321,0.0,0.0,65,0.00,,---,0.00,VWS V12.08,2013-12-12 07:41:00,
2013-12-12 01:46:00,2.7,-6.4,29.73,SSW,203,0.0,1.0,65,0.00,,---,0.00,VWS V12.08,2013-12-12 07:46:00,
2013-12-12 01:52:00,2.6,-6.5,29.73,WSW,238,0.0,1.0,65,0.00,,---,0.00,VWS V12.08,2013-12-12 07:52:00,
2013-12-12 01:57:00,2.4,-6.7,29.72,North,356,0.0,1.0,65,0.00,,---,0.00,VWS V12.08,2013-12-12 07:57:00,
2013-12-12 02:02:00,2.4,-6.7,29.72,North,354,0.0,0.0,65,0.00,,---,0.00,VWS V12.08,2013-12-12 08:02:00,
2013-12-12 02:07:00,2.5,-6.2,29.72,West,272,0.0,1.0,66,0.00,,---,0.00,VWS V12.08,2013-12-12 08:07:00,
2013-12-12 02:12:00,2.5,-6.6,29.72,North,349,0.0,1.0,65,0.00,,---,0.00,VWS V12.08,2013-12-12 08:12:00,
2013-12-12 02:17:00,2.6,-6.2,29.72,NW,319,0.0,1.0,66,0.00,,---,0.00,VWS V12.08,2013-12-12 08:17:00,
2013-12-12 02:22:00,2.8,-6.0,29.72,NW,312,0.0,1.0,66,0.00,,---,0.00,VWS V12.08,2013-12-12 08:22:00,
2013-12-12 02:27:00,2.8,-6.0,29.71,North,0,0.0,1.0,66,0.00,,---,0.00,VWS V12.08,2013-12-12 08:27:00,
2013-12-12 02:32:00,2.9,-5.9,29.71,SW,235,0.0,0.0,66,0.00,,---,0.00,VWS V12.08,2013-12-12 08:32:00,
2013-12-12 02:37:00,2.9,-5.9,29.70,NW,307,0.0,0.0,66,0.00,,---,0.00,VWS V12.08,2013-12-12 08:37:00,
2013-12-12 02:43:00,2.9,-5.9,29.71,WNW,293,0.0,0.0,66,0.00,,---,0.00,VWS V12.08,2013-12-12 08:43:00,
2013-12-12 02:48:00,3.0,-5.8,29.71,WSW,239,0.0,1.0,66,0.00,,---,0.00,VWS V12.08,2013-12-12 08:48:00,
2013-12-12 02:53:00,3.1,-5.7,29.70,West,281,0.0,1.0,66,0.00,,---,0.00,VWS V12.08,2013-12-12 08:53:00,
2013-12-12 02:58:00,3.3,-5.5,29.70,SSW,207,0.0,1.0,66,0.00,,---,0.00,VWS V12.08,2013-12-12 08:58:00,
2013-12-12 03:03:00,3.5,-5.3,29.70,NNW,334,0.0,0.0,66,0.00,,---,0.00,VWS V12.08,2013-12-12 09:03:00,
2013-12-12 03:08:00,3.7,-4.8,29.70,North,0,0.0,0.0,67,0.00,,---,0.00,VWS V12.08,2013-12-12 09:08:00,
2013-12-12 03:13:00,3.9,-4.6,29.69,North,359,0.0,1.0,67,0.00,,---,0.00,VWS V12.08,2013-12-12 09:13:00,
2013-12-12 03:18:00,4.1,-4.7,29.69,NNW,344,0.0,1.0,66,0.00,,---,0.00,VWS V12.08,2013-12-12 09:18:00,
2013-12-12 03:23:00,4.3,-4.5,29.69,NNW,338,0.0,1.0,66,0.00,,---,0.00,VWS V12.08,2013-12-12 09:23:00,
2013-12-12 03:29:00,4.5,-4.3,29.68,North,351,0.0,1.0,66,0.00,,---,0.00,VWS V12.08,2013-12-12 09:29:00,
2013-12-12 03:34:00,4.6,-4.2,29.68,NNW,346,0.0,1.0,66,0.00,,---,0.00,VWS V12.08,2013-12-12 09:34:00,
2013-12-12 03:40:00,4.8,-4.1,29.68,NW,307,0.0,1.0,66,0.00,,---,0.00,VWS V12.08,2013-12-12 09:40:00,
2013-12-12 03:45:00,4.9,-4.3,29.67,NNW,344,0.0,1.0,65,0.00,,---,0.00,VWS V12.08,2013-12-12 09:45:00,
2013-12-12 03:51:00,4.9,-4.3,29.67,WNW,282,0.0,1.0,65,0.00,,---,0.00,VWS V12.08,2013-12-12 09:51:00,
2013-12-12 03:56:00,5.0,-4.2,29.67,SW,219,0.0,1.0,65,0.00,,---,0.00,VWS V12.08,2013-12-12 09:56:00,
2013-12-12 04:01:00,5.1,-4.1,29.67,NNW,345,0.0,0.0,65,0.00,,---,0.00,VWS V12.08,2013-12-12 10:01:00,
2013-12-12 04:06:00,5.1,-4.1,29.67,NW,316,0.0,1.0,65,0.00,,---,0.00,VWS V12.08,2013-12-12 10:06:00,
2013-12-12 04:11:00,5.2,-4.0,29.66,North,349,0.0,1.0,65,0.00,,---,0.00,VWS V12.08,2013-12-12 10:11:00,
2013-12-12 04:16:00,5.3,-4.2,29.65,WNW,284,0.0,1.0,64,0.00,,---,0.00,VWS V12.08,2013-12-12 10:16:00,
2013-12-12 04:22:00,5.4,-4.1,29.65,NNW,337,0.0,1.0,64,0.00,,---,0.00,VWS V12.08,2013-12-12 10:22:00,
2013-12-12 04:27:00,5.5,-4.0,29.65,NNW,341,0.0,1.0,64,0.00,,---,0.00,VWS V12.08,2013-12-12 10:27:00,
2013-12-12 04:32:00,5.8,-3.7,29.65,North,353,0.0,0.0,64,0.00,,---,0.00,VWS V12.08,2013-12-12 10:32:00,
2013-12-12 04:37:00,6.2,-3.3,29.65,NNW,334,0.0,1.0,64,0.00,,---,0.00,VWS V12.08,2013-12-12 10:37:00,
2013-12-12 04:42:00,6.5,-3.4,29.65,WNW,285,0.0,1.0,63,0.00,,---,0.00,VWS V12.08,2013-12-12 10:42:00,
2013-12-12 04:47:00,6.9,-3.0,29.65,NW,308,0.0,1.0,63,0.00,,---,0.00,VWS V12.08,2013-12-12 10:47:00,
2013-12-12 04:52:00,7.3,-3.0,29.64,NW,314,0.0,1.0,62,0.00,,---,0.00,VWS V12.08,2013-12-12 10:52:00,
2013-12-12 04:57:00,7.7,-2.6,29.64,North,359,0.0,1.0,62,0.00,,---,0.00,VWS V12.08,2013-12-12 10:57:00,
2013-12-12 05:02:00,7.8,-2.8,29.64,NNW,337,0.0,3.0,61,0.00,,---,0.00,VWS V12.08,2013-12-12 11:02:00,
2013-12-12 05:07:00,8.0,-3.0,29.63,NNW,342,0.0,3.0,60,0.00,,---,0.00,VWS V12.08,2013-12-12 11:07:00,
2013-12-12 05:13:00,8.2,-2.8,29.63,West,278,0.0,3.0,60,0.00,,---,0.00,VWS V12.08,2013-12-12 11:13:00,
2013-12-12 05:18:00,8.3,-2.7,29.63,NNW,343,0.0,3.0,60,0.00,,---,0.00,VWS V12.08,2013-12-12 11:18:00,
2013-12-12 05:23:00,8.5,-2.9,29.63,North,350,0.0,3.0,59,0.00,,---,0.00,VWS V12.08,2013-12-12 11:23:00,
2013-12-12 05:28:00,8.6,-2.8,29.63,North,359,0.0,3.0,59,0.00,,---,0.00,VWS V12.08,2013-12-12 11:28:00,
2013-12-12 05:33:00,8.7,-2.7,29.62,North,359,0.0,1.0,59,0.00,,---,0.00,VWS V12.08,2013-12-12 11:33:00,
2013-12-12 05:38:00,8.8,-2.6,29.62,North,353,0.0,1.0,59,0.00,,---,0.00,VWS V12.08,2013-12-12 11:38:00,
2013-12-12 05:43:00,8.8,-2.6,29.62,WNW,301,0.0,2.0,59,0.00,,---,0.00,VWS V12.08,2013-12-12 11:43:00,
2013-12-12 05:49:00,8.8,-2.6,29.62,North,358,0.0,2.0,59,0.00,,---,0.00,VWS V12.08,2013-12-12 11:49:00,
2013-12-12 05:54:00,9.0,-2.4,29.62,West,278,0.0,2.0,59,0.00,,---,0.00,VWS V12.08,2013-12-12 11:54:00,
2013-12-12 05:59:00,9.0,-2.4,29.61,West,276,0.0,2.0,59,0.00,,---,0.00,VWS V12.08,2013-12-12 11:59:00,
2013-12-12 06:04:00,9.1,-2.3,29.62,North,359,0.0,1.0,59,0.00,,---,0.00,VWS V12.08,2013-12-12 12:04:00,
2013-12-12 06:09:00,9.1,-2.3,29.62,North,354,0.0,1.0,59,0.00,,---,0.00,VWS V12.08,2013-12-12 12:09:00,
2013-12-12 06:14:00,9.2,-2.2,29.61,North,357,0.0,1.0,59,0.00,,---,0.00,VWS V12.08,2013-12-12 12:14:00,
2013-12-12 06:19:00,9.3,-2.1,29.62,North,0,0.0,1.0,59,0.00,,---,0.00,VWS V12.08,2013-12-12 12:19:00,
2013-12-12 06:24:00,9.4,-2.0,29.61,North,359,0.0,1.0,59,0.00,,---,0.00,VWS V12.08,2013-12-12 12:24:00,
2013-12-12 06:29:00,9.7,-1.7,29.61,North,349,0.0,1.0,59,0.00,,---,0.00,VWS V12.08,2013-12-12 12:29:00,
2013-12-12 06:34:00,10.0,-1.8,29.61,North,0,0.0,0.0,58,0.00,,---,0.00,VWS V12.08,2013-12-12 12:34:00,
2013-12-12 06:39:00,10.1,-1.7,29.62,North,354,0.0,0.0,58,0.00,,---,0.00,VWS V12.08,2013-12-12 12:39:00,
2013-12-12 06:45:00,10.3,-1.5,29.62,North,359,0.0,0.0,58,0.00,,---,0.00,VWS V12.08,2013-12-12 12:45:00,
2013-12-12 06:50:00,10.6,-1.2,29.62,North,0,0.0,1.0,58,0.00,,---,0.00,VWS V12.08,2013-12-12 12:50:00,
2013-12-12 06:56:00,10.7,-1.2,29.62,NW,304,0.0,1.0,58,0.00,,---,0.00,VWS V12.08,2013-12-12 12:56:00,
2013-12-12 07:01:00,10.7,-1.2,29.62,NW,325,0.0,1.0,58,0.00,,---,0.00,VWS V12.08,2013-12-12 13:01:00,
2013-12-12 07:06:00,10.8,-1.1,29.63,West,268,0.0,1.0,58,0.00,,---,0.00,VWS V12.08,2013-12-12 13:06:00,
2013-12-12 07:12:00,11.0,-0.9,29.62,North,0,0.0,1.0,58,0.00,,---,0.00,VWS V12.08,2013-12-12 13:12:00,
2013-12-12 07:17:00,11.5,0.0,29.63,WNW,301,0.0,1.0,59,0.00,,---,0.00,VWS V12.08,2013-12-12 13:17:00,
2013-12-12 07:22:00,11.8,0.2,29.62,North,0,0.0,1.0,59,0.00,,---,0.00,VWS V12.08,2013-12-12 13:22:00,
2013-12-12 07:28:00,12.1,0.5,29.62,North,0,0.0,1.0,59,0.00,,---,0.00,VWS V12.08,2013-12-12 13:28:00,
2013-12-12 07:33:00,12.2,0.6,29.62,North,358,0.0,1.0,59,0.00,,---,0.00,VWS V12.08,2013-12-12 13:33:00,
2013-12-12 07:38:00,12.3,0.7,29.62,North,0,0.0,1.0,59,0.00,,---,0.00,VWS V12.08,2013-12-12 13:38:00,
2013-12-12 07:43:00,12.4,0.8,29.62,North,356,0.0,1.0,59,0.00,,---,0.00,VWS V12.08,2013-12-12 13:43:00,
2013-12-12 07:49:00,12.4,0.8,29.61,North,351,0.0,1.0,59,0.00,,---,0.00,VWS V12.08,2013-12-12 13:49:00,
2013-12-12 07:54:00,12.5,0.9,29.61,North,354,0.0,1.0,59,0.00,,---,0.00,VWS V12.08,2013-12-12 13:54:00,
2013-12-12 07:59:00,12.6,1.0,29.61,North,355,0.0,1.0,59,0.00,,---,0.00,VWS V12.08,2013-12-12 13:59:00,
2013-12-12 08:04:00,12.9,1.3,29.61,NNW,348,0.0,1.0,59,0.00,,---,0.00,VWS V12.08,2013-12-12 14:04:00,
2013-12-12 08:10:00,13.0,1.4,29.62,North,351,0.0,1.0,59,0.00,,---,0.00,VWS V12.08,2013-12-12 14:10:00,
2013-12-12 08:15:00,13.2,1.6,29.62,NNW,332,0.0,1.0,59,0.00,,---,0.00,VWS V12.08,2013-12-12 14:15:00,
2013-12-12 08:20:00,13.4,1.8,29.62,NNW,342,0.0,1.0,59,0.00,,---,0.00,VWS V12.08,2013-12-12 14:20:00,
2013-12-12 08:26:00,13.6,2.0,29.61,North,0,0.0,1.0,59,0.00,,---,0.00,VWS V12.08,2013-12-12 14:26:00,
2013-12-12 08:31:00,13.9,1.9,29.61,North,358,0.0,1.0,58,0.00,,---,0.00,VWS V12.08,2013-12-12 14:31:00,
2013-12-12 08:36:00,14.0,2.0,29.61,NNW,339,0.0,1.0,58,0.00,,---,0.00,VWS V12.08,2013-12-12 14:36:00,
2013-12-12 08:41:00,14.4,2.3,29.61,NW,321,0.0,1.0,58,0.00,,---,0.00,VWS V12.08,2013-12-12 14:41:00,
2013-12-12 08:46:00,14.7,2.6,29.61,NW,311,0.0,1.0,58,0.00,,---,0.00,VWS V12.08,2013-12-12 14:46:00,
2013-12-12 08:51:00,14.7,2.6,29.61,North,359,0.0,1.0,58,0.00,,---,0.00,VWS V12.08,2013-12-12 14:51:00,
2013-12-12 08:56:00,14.7,2.6,29.63,North,358,0.0,1.0,58,0.00,,---,0.00,VWS V12.08,2013-12-12 14:56:00,
2013-12-12 09:01:00,14.9,3.2,29.62,North,354,0.0,0.0,59,0.00,,---,0.00,VWS V12.08,2013-12-12 15:01:00,
2013-12-12 09:06:00,15.1,3.0,29.63,North,353,0.0,1.0,58,0.00,,---,0.00,VWS V12.08,2013-12-12 15:06:00,
2013-12-12 09:11:00,15.3,3.2,29.63,North,0,0.0,1.0,58,0.00,,---,0.00,VWS V12.08,2013-12-12 15:11:00,
2013-12-12 09:16:00,15.4,3.3,29.63,North,356,0.0,1.0,58,0.00,,---,0.00,VWS V12.08,2013-12-12 15:16:00,
2013-12-12 09:21:00,15.6,3.5,29.63,North,0,0.0,1.0,58,0.00,,---,0.00,VWS V12.08,2013-12-12 15:21:00,
2013-12-12 09:26:00,15.8,3.3,29.64,North,349,0.0,1.0,57,0.00,,---,0.00,VWS V12.08,2013-12-12 15:26:00,
2013-12-12 09:31:00,16.0,3.5,29.64,North,0,0.0,1.0,57,0.00,,---,0.00,VWS V12.08,2013-12-12 15:31:00,
2013-12-12 09:36:00,16.3,3.8,29.63,North,352,0.0,1.0,57,0.00,,---,0.00,VWS V12.08,2013-12-12 15:36:00,
2013-12-12 09:41:00,16.5,3.9,29.63,North,358,0.0,1.0,57,0.00,,---,0.00,VWS V12.08,2013-12-12 15:41:00,
2013-12-12 09:47:00,16.7,3.7,29.62,North,358,0.0,2.0,56,0.00,,---,0.00,VWS V12.08,2013-12-12 15:47:00,
2013-12-12 09:52:00,16.8,3.8,29.62,North,354,0.0,2.0,56,0.00,,---,0.00,VWS V12.08,2013-12-12 15:52:00,
2013-12-12 09:57:00,17.2,4.6,29.62,North,359,0.0,2.0,57,0.00,,---,0.00,VWS V12.08,2013-12-12 15:57:00,
2013-12-12 10:03:00,17.6,5.0,29.63,NNW,335,0.0,1.0,57,0.00,,---,0.00,VWS V12.08,2013-12-12 16:03:00,
2013-12-12 10:08:00,18.1,5.4,29.63,North,359,0.0,1.0,57,0.00,,---,0.00,VWS V12.08,2013-12-12 16:08:00,
2013-12-12 10:13:00,18.4,5.3,29.62,North,357,0.0,1.0,56,0.00,,---,0.00,VWS V12.08,2013-12-12 16:13:00,
2013-12-12 10:19:00,18.8,5.7,29.62,North,352,0.0,1.0,56,0.00,,---,0.00,VWS V12.08,2013-12-12 16:19:00,
2013-12-12 10:24:00,19.1,6.0,29.62,North,352,0.0,1.0,56,0.00,,---,0.00,VWS V12.08,2013-12-12 16:24:00,
2013-12-12 10:29:00,19.6,6.5,29.62,North,0,0.0,1.0,56,0.00,,---,0.00,VWS V12.08,2013-12-12 16:29:00,
2013-12-12 10:34:00,19.6,6.5,29.60,NNW,337,0.0,1.0,56,0.00,,---,0.00,VWS V12.08,2013-12-12 16:34:00,
2013-12-12 10:39:00,19.6,6.1,29.62,North,356,0.0,1.0,55,0.00,,---,0.00,VWS V12.08,2013-12-12 16:39:00,
2013-12-12 10:44:00,19.8,6.7,29.62,North,356,0.0,1.0,56,0.00,,---,0.00,VWS V12.08,2013-12-12 16:44:00,
2013-12-12 10:49:00,19.8,6.7,29.61,North,359,0.0,1.0,56,0.00,,---,0.00,VWS V12.08,2013-12-12 16:49:00,
2013-12-12 10:54:00,19.9,6.8,29.61,North,357,0.0,1.0,56,0.00,,---,0.00,VWS V12.08,2013-12-12 16:54:00,
2013-12-12 11:00:00,20.4,7.2,29.60,North,0,0.0,1.0,56,0.00,,---,0.00,VWS V12.08,2013-12-12 17:00:00,
2013-12-12 11:05:00,20.7,7.5,29.60,North,353,0.0,1.0,56,0.00,,---,0.00,VWS V12.08,2013-12-12 17:05:00,
2013-12-12 11:10:00,20.9,8.1,29.60,North,355,0.0,1.0,57,0.00,,---,0.00,VWS V12.08,2013-12-12 17:10:00,
2013-12-12 11:15:00,21.1,8.3,29.60,North,0,0.0,1.0,57,0.00,,---,0.00,VWS V12.08,2013-12-12 17:15:00,
2013-12-12 11:20:00,21.4,8.6,29.60,North,0,0.0,1.0,57,0.00,,---,0.00,VWS V12.08,2013-12-12 17:20:00,
2013-12-12 11:25:00,21.7,8.8,29.60,North,358,0.0,1.0,57,0.00,,---,0.00,VWS V12.08,2013-12-12 17:25:00,
2013-12-12 11:30:00,21.9,9.0,29.59,North,0,0.0,1.0,57,0.00,,---,0.00,VWS V12.08,2013-12-12 17:30:00,
2013-12-12 11:35:00,22.0,8.7,29.60,North,358,0.0,1.0,56,0.00,,---,0.00,VWS V12.08,2013-12-12 17:35:00,
2013-12-12 11:40:00,22.3,9.4,29.59,North,0,1.0,1.0,57,0.00,,---,0.00,VWS V12.08,2013-12-12 17:40:00,
2013-12-12 11:46:00,22.7,9.8,29.58,North,353,0.0,1.0,57,0.00,,---,0.00,VWS V12.08,2013-12-12 17:46:00,
2013-12-12 11:51:00,22.8,9.9,29.59,North,353,0.0,1.0,57,0.00,,---,0.00,VWS V12.08,2013-12-12 17:51:00,
2013-12-12 11:56:00,22.8,9.5,29.59,North,357,0.0,1.0,56,0.00,,---,0.00,VWS V12.08,2013-12-12 17:56:00,
2013-12-12 12:01:00,23.2,10.2,29.58,North,355,0.0,1.0,57,0.00,,---,0.00,VWS V12.08,2013-12-12 18:01:00,
2013-12-12 12:06:00,23.5,10.5,29.58,North,358,0.0,1.0,57,0.00,,---,0.00,VWS V12.08,2013-12-12 18:06:00,
2013-12-12 12:12:00,23.6,10.2,29.57,North,0,0.0,1.0,56,0.00,,---,0.00,VWS V12.08,2013-12-12 18:12:00,
2013-12-12 12:17:00,23.5,10.1,29.57,North,352,0.0,1.0,56,0.00,,---,0.00,VWS V12.08,2013-12-12 18:17:00,
2013-12-12 12:22:00,23.5,10.1,29.57,WNW,289,0.0,1.0,56,0.00,,---,0.00,VWS V12.08,2013-12-12 18:22:00,
2013-12-12 12:27:00,23.8,10.8,29.57,North,359,0.0,1.0,57,0.00,,---,0.00,VWS V12.08,2013-12-12 18:27:00,
2013-12-12 12:32:00,24.0,11.0,29.57,North,354,0.0,1.0,57,0.00,,---,0.00,VWS V12.08,2013-12-12 18:32:00,
2013-12-12 12:38:00,23.9,10.5,29.56,North,349,0.0,1.0,56,0.00,,---,0.00,VWS V12.08,2013-12-12 18:38:00,
2013-12-12 12:43:00,24.1,10.7,29.57,North,358,0.0,1.0,56,0.00,,---,0.00,VWS V12.08,2013-12-12 18:43:00,
2013-12-12 12:48:00,24.2,11.2,29.57,North,0,0.0,1.0,57,0.00,,---,0.00,VWS V12.08,2013-12-12 18:48:00,
2013-12-12 12:53:00,24.3,11.3,29.57,NNW,347,0.0,1.0,57,0.00,,---,0.00,VWS V12.08,2013-12-12 18:53:00,
2013-12-12 12:58:00,24.5,11.1,29.56,WSW,245,0.0,1.0,56,0.00,,---,0.00,VWS V12.08,2013-12-12 18:58:00,
2013-12-12 13:03:00,24.7,11.6,29.56,NNW,345,0.0,0.0,57,0.00,,---,0.00,VWS V12.08,2013-12-12 19:03:00,
2013-12-12 13:09:00,25.2,11.7,29.55,NNW,343,0.0,1.0,56,0.00,,---,0.00,VWS V12.08,2013-12-12 19:09:00,
2013-12-12 13:14:00,25.3,11.8,29.56,North,359,0.0,1.0,56,0.00,,---,0.00,VWS V12.08,2013-12-12 19:14:00,
2013-12-12 13:19:00,25.5,11.6,29.56,North,357,0.0,1.0,55,0.00,,---,0.00,VWS V12.08,2013-12-12 19:19:00,
2013-12-12 13:25:00,25.5,11.6,29.55,North,350,0.0,1.0,55,0.00,,---,0.00,VWS V12.08,2013-12-12 19:25:00,
2013-12-12 13:31:00,25.5,11.6,29.56,North,358,0.0,0.0,55,0.00,,---,0.00,VWS V12.08,2013-12-12 19:31:00,
2013-12-12 13:36:00,25.6,12.1,29.56,North,358,0.0,0.0,56,0.00,,---,0.00,VWS V12.08,2013-12-12 19:36:00,
2013-12-12 13:41:00,25.9,12.0,29.56,North,0,0.0,0.0,55,0.00,,---,0.00,VWS V12.08,2013-12-12 19:41:00,
2013-12-12 13:46:00,26.4,12.8,29.55,North,356,0.0,0.0,56,0.00,,---,0.00,VWS V12.08,2013-12-12 19:46:00,
2013-12-12 13:51:00,26.6,12.6,29.55,North,355,0.0,1.0,55,0.00,,---,0.00,VWS V12.08,2013-12-12 19:51:00,
2013-12-12 13:56:00,26.9,12.5,29.56,NNW,339,0.0,1.0,54,0.00,,---,0.00,VWS V12.08,2013-12-12 19:56:00,
2013-12-12 14:01:00,27.1,12.7,29.55,South,185,0.0,0.0,54,0.00,,---,0.00,VWS V12.08,2013-12-12 20:01:00,
2013-12-12 14:06:00,27.2,12.8,29.55,NNW,337,0.0,0.0,54,0.00,,---,0.00,VWS V12.08,2013-12-12 20:06:00,
2013-12-12 14:11:00,27.5,13.1,29.55,North,355,0.0,0.0,54,0.00,,---,0.00,VWS V12.08,2013-12-12 20:11:00,
2013-12-12 14:16:00,27.5,13.1,29.55,WSW,247,0.0,0.0,54,0.00,,---,0.00,VWS V12.08,2013-12-12 20:16:00,
2013-12-12 14:21:00,27.4,13.0,29.55,North,0,0.0,0.0,54,0.00,,---,0.00,VWS V12.08,2013-12-12 20:21:00,
2013-12-12 14:26:00,27.4,12.5,29.56,North,0,0.0,0.0,53,0.00,,---,0.00,VWS V12.08,2013-12-12 20:26:00,
2013-12-12 14:31:00,27.4,13.0,29.55,WNW,294,0.0,0.0,54,0.00,,---,0.00,VWS V12.08,2013-12-12 20:31:00,
2013-12-12 14:36:00,27.3,12.4,29.55,North,350,0.0,0.0,53,0.00,,---,0.00,VWS V12.08,2013-12-12 20:36:00,
2013-12-12 14:41:00,27.3,12.9,29.55,NW,315,0.0,0.0,54,0.00,,---,0.00,VWS V12.08,2013-12-12 20:41:00,
2013-12-12 14:46:00,27.4,13.0,29.54,NW,326,0.0,0.0,54,0.00,,---,0.00,VWS V12.08,2013-12-12 20:46:00,
2013-12-12 14:51:00,27.4,13.0,29.55,WNW,283,0.0,0.0,54,0.00,,---,0.00,VWS V12.08,2013-12-12 20:51:00,
2013-12-12 14:56:00,27.3,12.9,29.54,WSW,240,0.0,0.0,54,0.00,,---,0.00,VWS V12.08,2013-12-12 20:56:00,
2013-12-12 15:01:00,27.4,13.4,29.54,WNW,285,0.0,0.0,55,0.00,,---,0.00,VWS V12.08,2013-12-12 21:01:00,
2013-12-12 15:07:00,27.6,13.1,29.53,North,0,0.0,0.0,54,0.00,,---,0.00,VWS V12.08,2013-12-12 21:07:00,
2013-12-12 15:12:00,27.7,13.2,29.54,West,278,0.0,0.0,54,0.00,,---,0.00,VWS V12.08,2013-12-12 21:12:00,
2013-12-12 15:17:00,28.0,13.9,29.53,South,191,0.0,0.0,55,0.00,,---,0.00,VWS V12.08,2013-12-12 21:17:00,
2013-12-12 15:22:00,27.9,13.4,29.53,WSW,240,0.0,0.0,54,0.00,,---,0.00,VWS V12.08,2013-12-12 21:22:00,
2013-12-12 15:27:00,27.9,13.4,29.53,West,272,0.0,0.0,54,0.00,,---,0.00,VWS V12.08,2013-12-12 21:27:00,
2013-12-12 15:32:00,27.9,13.8,29.53,SW,219,0.0,0.0,55,0.00,,---,0.00,VWS V12.08,2013-12-12 21:32:00,
2013-12-12 15:37:00,28.1,14.0,29.53,South,189,0.0,0.0,55,0.00,,---,0.00,VWS V12.08,2013-12-12 21:37:00,
2013-12-12 15:42:00,28.1,14.0,29.53,NW,324,0.0,0.0,55,0.00,,---,0.00,VWS V12.08,2013-12-12 21:42:00,
2013-12-12 15:47:00,28.1,14.4,29.53,North,354,0.0,0.0,56,0.00,,---,0.00,VWS V12.08,2013-12-12 21:47:00,
2013-12-12 15:52:00,27.9,13.8,29.52,North,350,0.0,0.0,55,0.00,,---,0.00,VWS V12.08,2013-12-12 21:52:00,
2013-12-12 15:57:00,27.8,14.2,29.52,NNW,339,0.0,0.0,56,0.00,,---,0.00,VWS V12.08,2013-12-12 21:57:00,
2013-12-12 16:02:00,27.7,14.1,29.51,North,357,0.0,0.0,56,0.00,,---,0.00,VWS V12.08,2013-12-12 22:02:00,
2013-12-12 16:07:00,27.8,14.6,29.51,North,0,0.0,0.0,57,0.00,,---,0.00,VWS V12.08,2013-12-12 22:07:00,
2013-12-12 16:12:00,27.9,14.6,29.52,WNW,303,0.0,0.0,57,0.00,,---,0.00,VWS V12.08,2013-12-12 22:12:00,
2013-12-12 16:17:00,27.9,14.6,29.52,North,0,0.0,0.0,57,0.00,,---,0.00,VWS V12.08,2013-12-12 22:17:00,
2013-12-12 16:22:00,27.8,14.6,29.51,NNW,331,0.0,0.0,57,0.00,,---,0.00,VWS V12.08,2013-12-12 22:22:00,
2013-12-12 16:28:00,27.7,14.5,29.51,NW,324,0.0,0.0,57,0.00,,---,0.00,VWS V12.08,2013-12-12 22:28:00,
2013-12-12 16:33:00,27.5,14.7,29.51,North,359,0.0,0.0,58,0.00,,---,0.00,VWS V12.08,2013-12-12 22:33:00,
2013-12-12 16:39:00,27.3,14.5,29.50,WSW,239,0.0,0.0,58,0.00,,---,0.00,VWS V12.08,2013-12-12 22:39:00,
2013-12-12 16:44:00,27.2,14.8,29.51,North,0,0.0,0.0,59,0.00,,---,0.00,VWS V12.08,2013-12-12 22:44:00,
2013-12-12 16:49:00,27.1,14.7,29.51,North,0,0.0,0.0,59,0.00,,---,0.00,VWS V12.08,2013-12-12 22:49:00,
2013-12-12 16:54:00,27.0,14.6,29.50,North,353,0.0,0.0,59,0.00,,---,0.00,VWS V12.08,2013-12-12 22:54:00,
2013-12-12 16:59:00,26.9,14.5,29.50,North,0,0.0,0.0,59,0.00,,---,0.00,VWS V12.08,2013-12-12 22:59:00,
2013-12-12 17:04:00,26.8,14.4,29.50,North,0,0.0,0.0,59,0.00,,---,0.00,VWS V12.08,2013-12-12 23:04:00,
2013-12-12 17:09:00,26.6,14.6,29.49,North,0,0.0,0.0,60,0.00,,---,0.00,VWS V12.08,2013-12-12 23:09:00,
2013-12-12 17:14:00,26.5,14.5,29.50,North,0,0.0,0.0,60,0.00,,---,0.00,VWS V12.08,2013-12-12 23:14:00,
2013-12-12 17:19:00,26.4,14.4,29.50,North,0,0.0,0.0,60,0.00,,---,0.00,VWS V12.08,2013-12-12 23:19:00,
2013-12-12 17:24:00,26.3,14.3,29.49,WNW,301,0.0,0.0,60,0.00,,---,0.00,VWS V12.08,2013-12-12 23:24:00,
2013-12-12 17:29:00,26.3,14.7,29.49,NW,324,0.0,0.0,61,0.00,,---,0.00,VWS V12.08,2013-12-12 23:29:00,
2013-12-12 17:34:00,26.2,14.6,29.49,West,264,0.0,0.0,61,0.00,,---,0.00,VWS V12.08,2013-12-12 23:34:00,
2013-12-12 17:40:00,26.0,14.4,29.48,North,358,0.0,0.0,61,0.00,,---,0.00,VWS V12.08,2013-12-12 23:40:00,
2013-12-12 17:45:00,25.8,14.2,29.49,North,0,0.0,0.0,61,0.00,,---,0.00,VWS V12.08,2013-12-12 23:45:00,
2013-12-12 17:50:00,25.7,14.1,29.47,WSW,254,0.0,0.0,61,0.00,,---,0.00,VWS V12.08,2013-12-12 23:50:00,
2013-12-12 17:55:00,25.6,14.0,29.48,North,359,0.0,0.0,61,0.00,,---,0.00,VWS V12.08,2013-12-12 23:55:00,
2013-12-12 18:02:00,25.6,14.0,29.49,North,358,0.0,0.0,61,0.00,,---,0.00,VWS V12.08,2013-12-13 00:02:00,
2013-12-12 18:07:00,25.4,14.2,29.48,North,359,0.0,0.0,62,0.00,,---,0.00,VWS V12.08,2013-12-13 00:07:00,
2013-12-12 18:13:00,25.3,14.1,29.48,North,0,0.0,0.0,62,0.00,,---,0.00,VWS V12.08,2013-12-13 00:13:00,
2013-12-12 18:19:00,25.2,14.0,29.48,North,0,0.0,0.0,62,0.00,,---,0.00,VWS V12.08,2013-12-13 00:19:00,
2013-12-12 18:25:00,25.1,14.3,29.48,North,0,0.0,0.0,63,0.00,,---,0.00,VWS V12.08,2013-12-13 00:25:00,
2013-12-12 18:30:00,25.0,13.8,29.47,North,0,0.0,0.0,62,0.00,,---,0.00,VWS V12.08,2013-12-13 00:30:00,
2013-12-12 18:35:00,24.9,14.1,29.47,North,357,0.0,0.0,63,0.00,,---,0.00,VWS V12.08,2013-12-13 00:35:00,
2013-12-12 18:40:00,24.8,14.0,29.47,NW,315,0.0,0.0,63,0.00,,---,0.00,VWS V12.08,2013-12-13 00:40:00,
2013-12-12 18:46:00,24.7,13.9,29.47,North,0,0.0,0.0,63,0.00,,---,0.00,VWS V12.08,2013-12-13 00:46:00,
2013-12-12 18:51:00,24.7,14.3,29.46,North,0,0.0,0.0,64,0.00,,---,0.00,VWS V12.08,2013-12-13 00:51:00,
2013-12-12 18:57:00,24.6,13.8,29.47,North,0,0.0,0.0,63,0.00,,---,0.00,VWS V12.08,2013-12-13 00:57:00,
2013-12-12 19:02:00,24.6,14.2,29.46,WNW,290,0.0,0.0,64,0.00,,---,0.00,VWS V12.08,2013-12-13 01:02:00,
2013-12-12 19:07:00,24.5,14.1,29.47,SW,223,0.0,0.0,64,0.00,,---,0.00,VWS V12.08,2013-12-13 01:07:00,
2013-12-12 19:12:00,24.5,14.1,29.46,SW,218,0.0,0.0,64,0.00,,---,0.00,VWS V12.08,2013-12-13 01:12:00,
2013-12-12 19:17:00,24.4,14.0,29.47,North,356,0.0,0.0,64,0.00,,---,0.00,VWS V12.08,2013-12-13 01:17:00,
2013-12-12 19:22:00,24.4,14.3,29.47,North,0,0.0,0.0,65,0.00,,---,0.00,VWS V12.08,2013-12-13 01:22:00,
2013-12-12 19:27:00,24.4,14.3,29.46,North,0,0.0,0.0,65,0.00,,---,0.00,VWS V12.08,2013-12-13 01:27:00,
2013-12-12 19:32:00,24.4,14.3,29.46,North,359,0.0,0.0,65,0.00,,---,0.00,VWS V12.08,2013-12-13 01:32:00,
2013-12-12 19:37:00,24.4,14.3,29.47,North,353,0.0,0.0,65,0.00,,---,0.00,VWS V12.08,2013-12-13 01:37:00,
2013-12-12 19:42:00,24.4,14.3,29.46,North,359,0.0,0.0,65,0.00,,---,0.00,VWS V12.08,2013-12-13 01:42:00,
2013-12-12 19:47:00,24.3,14.2,29.47,West,268,0.0,0.0,65,0.00,,---,0.00,VWS V12.08,2013-12-13 01:47:00,
2013-12-12 19:52:00,24.3,14.2,29.47,North,0,0.0,0.0,65,0.00,,---,0.00,VWS V12.08,2013-12-13 01:52:00,
2013-12-12 19:57:00,24.1,14.1,29.47,North,0,0.0,0.0,65,0.00,,---,0.00,VWS V12.08,2013-12-13 01:57:00,
2013-12-12 20:02:00,24.0,14.0,29.46,North,0,0.0,0.0,65,0.00,,---,0.00,VWS V12.08,2013-12-13 02:02:00,
2013-12-12 20:07:00,23.9,14.2,29.46,North,0,0.0,0.0,66,0.00,,---,0.00,VWS V12.08,2013-12-13 02:07:00,
2013-12-12 20:13:00,23.8,14.1,29.46,North,357,0.0,0.0,66,0.00,,---,0.00,VWS V12.08,2013-12-13 02:13:00,
2013-12-12 20:18:00,23.7,14.0,29.46,North,0,0.0,0.0,66,0.00,,---,0.00,VWS V12.08,2013-12-13 02:18:00,
2013-12-12 20:23:00,23.6,13.9,29.46,NNW,345,0.0,0.0,66,0.00,,---,0.00,VWS V12.08,2013-12-13 02:23:00,
2013-12-12 20:28:00,23.5,13.8,29.46,WSW,244,0.0,0.0,66,0.00,,---,0.00,VWS V12.08,2013-12-13 02:28:00,
2013-12-12 20:33:00,23.4,14.1,29.45,North,357,0.0,0.0,67,0.00,,---,0.00,VWS V12.08,2013-12-13 02:33:00,
2013-12-12 20:38:00,23.3,14.0,29.45,North,0,0.0,0.0,67,0.00,,---,0.00,VWS V12.08,2013-12-13 02:38:00,
2013-12-12 20:43:00,23.1,13.8,29.46,West,272,0.0,0.0,67,0.00,,---,0.00,VWS V12.08,2013-12-13 02:43:00,
2013-12-12 20:48:00,23.0,13.7,29.45,SW,225,0.0,0.0,67,0.00,,---,0.00,VWS V12.08,2013-12-13 02:48:00,
2013-12-12 20:53:00,22.9,13.9,29.45,SW,232,0.0,0.0,68,0.00,,---,0.00,VWS V12.08,2013-12-13 02:53:00,
2013-12-12 20:58:00,22.9,13.9,29.45,SW,225,0.0,0.0,68,0.00,,---,0.00,VWS V12.08,2013-12-13 02:58:00,
2013-12-12 21:03:00,22.8,13.8,29.45,WNW,294,0.0,0.0,68,0.00,,---,0.00,VWS V12.08,2013-12-13 03:03:00,
2013-12-12 21:09:00,22.8,13.8,29.45,West,277,0.0,0.0,68,0.00,,---,0.00,VWS V12.08,2013-12-13 03:09:00,
2013-12-12 21:15:00,22.7,13.7,29.44,NNW,347,0.0,0.0,68,0.00,,---,0.00,VWS V12.08,2013-12-13 03:15:00,
2013-12-12 21:20:00,22.7,14.1,29.45,North,359,0.0,0.0,69,0.00,,---,0.00,VWS V12.08,2013-12-13 03:20:00,
2013-12-12 21:25:00,22.7,13.7,29.44,North,0,0.0,0.0,68,0.00,,---,0.00,VWS V12.08,2013-12-13 03:25:00,
2013-12-12 21:30:00,22.7,14.1,29.44,North,0,0.0,0.0,69,0.00,,---,0.00,VWS V12.08,2013-12-13 03:30:00,
2013-12-12 21:35:00,22.6,14.0,29.43,WNW,302,0.0,0.0,69,0.00,,---,0.00,VWS V12.08,2013-12-13 03:35:00,
2013-12-12 21:40:00,22.6,14.0,29.44,North,354,0.0,0.0,69,0.00,,---,0.00,VWS V12.08,2013-12-13 03:40:00,
2013-12-12 21:45:00,22.6,14.0,29.44,North,0,0.0,0.0,69,0.00,,---,0.00,VWS V12.08,2013-12-13 03:45:00,
2013-12-12 21:50:00,22.7,14.4,29.43,North,0,0.0,0.0,70,0.00,,---,0.00,VWS V12.08,2013-12-13 03:50:00,
2013-12-12 21:55:00,22.7,14.1,29.43,North,0,0.0,0.0,69,0.00,,---,0.00,VWS V12.08,2013-12-13 03:55:00,
2013-12-12 22:00:00,22.6,14.3,29.43,North,0,0.0,0.0,70,0.00,,---,0.00,VWS V12.08,2013-12-13 04:00:00,
2013-12-12 22:05:00,22.5,14.2,29.43,North,0,0.0,0.0,70,0.00,,---,0.00,VWS V12.08,2013-12-13 04:05:00,
2013-12-12 22:10:00,22.2,13.9,29.43,North,0,0.0,0.0,70,0.00,,---,0.00,VWS V12.08,2013-12-13 04:10:00,
2013-12-12 22:15:00,22.0,13.7,29.43,North,0,0.0,0.0,70,0.00,,---,0.00,VWS V12.08,2013-12-13 04:15:00,
2013-12-12 22:20:00,22.1,13.8,29.42,North,0,0.0,0.0,70,0.00,,---,0.00,VWS V12.08,2013-12-13 04:20:00,
2013-12-12 22:26:00,21.9,13.6,29.42,North,0,0.0,0.0,70,0.00,,---,0.00,VWS V12.08,2013-12-13 04:26:00,
2013-12-12 22:31:00,21.8,13.5,29.43,North,0,0.0,0.0,70,0.00,,---,0.00,VWS V12.08,2013-12-13 04:31:00,
2013-12-12 22:36:00,21.9,14.0,29.42,North,0,0.0,0.0,71,0.00,,---,0.00,VWS V12.08,2013-12-13 04:36:00,
2013-12-12 22:41:00,22.2,14.2,29.42,North,0,0.0,0.0,71,0.00,,---,0.00,VWS V12.08,2013-12-13 04:41:00,
2013-12-12 22:46:00,22.3,14.0,29.42,North,0,0.0,0.0,70,0.00,,---,0.00,VWS V12.08,2013-12-13 04:46:00,
2013-12-12 22:51:00,22.4,14.4,29.42,North,0,0.0,0.0,71,0.00,,---,0.00,VWS V12.08,2013-12-13 04:51:00,
2013-12-12 22:56:00,22.4,14.4,29.42,North,0,0.0,0.0,71,0.00,,---,0.00,VWS V12.08,2013-12-13 04:56:00,
2013-12-12 23:01:00,22.4,14.4,29.42,WSW,240,0.0,0.0,71,0.00,,---,0.00,VWS V12.08,2013-12-13 05:01:00,
2013-12-12 23:02:00,22.4,14.1,29.42,SW,231,0.0,0.0,70,0.00,,---,0.00,VWS V12.08,2013-12-13 05:02:00,
2013-12-12 23:04:00,22.4,14.4,29.41,SW,233,0.0,0.0,71,0.00,,---,0.00,VWS V12.08,2013-12-13 05:04:00,
2013-12-12 23:07:00,22.5,14.5,29.41,SW,234,0.0,0.0,71,0.00,,---,0.00,VWS V12.08,2013-12-13 05:07:00,
2013-12-12 23:08:00,22.5,14.2,29.41,North,0,0.0,0.0,70,0.00,,---,0.00,VWS V12.08,2013-12-13 05:08:00,
2013-12-12 23:12:00,22.6,14.3,29.42,North,0,0.0,0.0,70,0.00,,---,0.00,VWS V12.08,2013-12-13 05:12:00,
2013-12-12 23:17:00,22.6,14.3,29.41,NW,318,0.0,0.0,70,0.00,,---,0.00,VWS V12.08,2013-12-13 05:17:00,
2013-12-12 23:22:00,22.6,14.3,29.40,North,0,0.0,0.0,70,0.00,,---,0.00,VWS V12.08,2013-12-13 05:22:00,
2013-12-12 23:27:00,22.5,14.5,29.41,North,0,0.0,0.0,71,0.00,,---,0.00,VWS V12.08,2013-12-13 05:27:00,
2013-12-12 23:32:00,22.4,14.1,29.41,NNW,342,0.0,0.0,70,0.00,,---,0.00,VWS V12.08,2013-12-13 05:32:00,
2013-12-12 23:37:00,22.1,13.8,29.40,NW,306,0.0,0.0,70,0.00,,---,0.00,VWS V12.08,2013-12-13 05:37:00,
2013-12-12 23:42:00,22.2,14.2,29.40,West,273,0.0,0.0,71,0.00,,---,0.00,VWS V12.08,2013-12-13 05:42:00,
2013-12-12 23:47:00,22.1,14.1,29.39,North,354,0.0,0.0,71,0.00,,---,0.00,VWS V12.08,2013-12-13 05:47:00,
2013-12-12 23:52:00,22.1,14.5,29.40,North,0,0.0,0.0,72,0.00,,---,0.00,VWS V12.08,2013-12-13 05:52:00,
2013-12-12 23:57:00,22.3,14.7,29.38,North,0,0.0,0.0,72,0.00,,---,0.00,VWS V12.08,2013-12-13 05:57:00,